Location: Bun Machan
(52.1403°N, 7.3744°W)
Time: 19:19:26
(UTC+00:00)

Cosmos 2322 Rocket - Pass Details

Date: 14 July 2020
Orbit: 832 x 851 km, 71.0° (Epoch: 12 August)

Event Time Altitude Azimuth Distance (km) Brightness Sun altitude
Rises 02:40:53 0° 330° (NNW) 3,404 5.8 -11.3°
Reaches altitude 10° 02:43:35 10° 340° (NNW) 2,469 5.2 -11.1°
Maximum altitude 02:48:41 33° 44° (NE) 1,387 4.2 -10.7°
Drops below altitude 10° 02:53:46 10° 108° (ESE) 2,470 4.8 -10.3°
Sets 02:56:28 0° 118° (ESE) 3,405 5.4 -10.1°
